Regional Weather Roundup
Issued by NWS

Home | Current Version | Previous Version | Text Only | Print | Product List | Glossary On
Versions: 1 2 3 4 5 6 7 8 9 10 11 12 13 14 15 16 17 18 19 20 21 22 23 24 25 26 27 28 29 30 31 32 33 34 35 36 37 38 39 40 41 42 43 44 45 46 47 48 49 50
000
ASUS43 KFSD 281110
RWRSD

WEATHER ROUNDUP FOR SOUTH DAKOTA
NATIONAL WEATHER SERVICE SIOUX FALLS SD
600 AM CDT THU JUL 28 2016

NOTE: "FAIR" INDICATES FEW OR NO CLOUDS BELOW 12,000 FEET WITH NO
SIGNIFICANT WEATHER AND/OR OBSTRUCTIONS TO VISIBILITY.


SDZ001>005-009-010-012>017-281200-
NORTHWEST AND NORTH CENTRAL SOUTH DAKOTA

CITY           SKY/WX    TMP DP  RH WIND       PRES   REMARKS
BUFFALO          N/A     60  59  96 NE12      30.07R
FAITH            N/A     59  57  93 NE6       30.11S
MOBRIDGE       CLEAR     62  57  83 S3        30.09R
$$

SDZ012>016-024>037-041>051-057-063-072>074-281200-
SOUTHWEST AND SOUTH CENTRAL SOUTH DAKOTA

CITY           SKY/WX    TMP DP  RH WIND       PRES   REMARKS
RAPID CTY ARPT CLOUDY    63  60  90 S6        30.06F
PIERRE         MOCLDY    60  58  92 E6        30.08S
CUSTER         CLOUDY    52  50  93 NW6       30.20F
ELLSWORTH AFB  CLEAR     66  60  81 W9        30.07
PHILIP         CLOUDY    58  57  97 SW3       30.10S
PINE RIDGE     CLOUDY    64  63  96 W9        30.19R
WINNER         FAIR      60  57  89 CALM      30.10S
$$

SDZ004>011-016>023-039-040-281200-
NORTHEAST SOUTH DAKOTA

CITY           SKY/WX    TMP DP  RH WIND       PRES   REMARKS
ABERDEEN       PTCLDY    61  58  90 NW7       30.10R
WATERTOWN      CLOUDY    60  57  89 N6        30.06R
BROOKINGS      PTCLDY    59  57  93 W3        30.06R
SISSETON         N/A     60  58  92 N9        30.06R
$$

SDZ017-020-022-023-036>040-048>070-281200-
SOUTHEAST SOUTH DAKOTA

CITY           SKY/WX    TMP DP  RH WIND       PRES   REMARKS
SIOUX FALLS    PTCLDY    62  57  83 NW6       30.05R
HURON          PTCLDY    59  57  93 NW3       30.08R
CHAMBERLAIN    CLEAR     63  59  86 E5        30.09S
MITCHELL       MOCLDY    63  60  90 NW6       30.08R
YANKTON        MOCLDY    63  57  82 NW7       30.05R
$$

ABBREVIATIONS USED IN REMARKS
   TC - TEMPERATURE IN CELSIUS
  WCI - WIND CHILL INDEX
   HX - HEAT INDEX
  VSB - VISIBILITY




USA.gov is the U.S. government's official web portal to all federal, state and local government web resources and services.